Tiempo cada hora Barnowiec

Hoy, 25 Junio, Viernes

Tiempo Temperatura Precipitaciones Viento Presión Humedad
00:00 +19°C° 0.1 mm 1 mps 708 mmHg 95%
01:00 +19°C° 0.1 mm 1 mps 708 mmHg 95%
02:00 +18°C° 0 mm 1 mps 707 mmHg 96%
03:00 +18°C° 0 mm 1 mps 707 mmHg 96%
04:00 +18°C° 0 mm 1 mps 707 mmHg 97%
05:00 +20°C° 0 mm 1 mps 707 mmHg 93%
06:00 +21°C° 0 mm 1 mps 707 mmHg 89%
07:00 +23°C° 0 mm 2 mps 707 mmHg 85%
08:00 +24°C° 0.1 mm 2 mps 708 mmHg 78%
09:00 +25°C° 0.1 mm 2 mps 708 mmHg 71%
10:00 +26°C° 0.1 mm 3 mps 708 mmHg 65%
11:00 +25°C° 0.5 mm 3 mps 708 mmHg 68%
12:00 +25°C° 0.5 mm 3 mps 709 mmHg 71%
13:00 +23°C° 0.5 mm 4 mps 709 mmHg 74%
14:00 +21°C° 0.1 mm 3 mps 708 mmHg 79%
15:00 +20°C° 0.1 mm 3 mps 708 mmHg 84%
16:00 +19°C° 0.1 mm 3 mps 708 mmHg 88%
17:00 +18°C° 0 mm 3 mps 708 mmHg 90%
18:00 +18°C° 0 mm 2 mps 709 mmHg 91%
19:00 +18°C° 0 mm 1 mps 709 mmHg 92%
20:00 +18°C° 0 mm 1 mps 709 mmHg 93%
21:00 +16°C° 0 mm 1 mps 709 mmHg 94%
22:00 +16°C° 0 mm 1 mps 709 mmHg 95%
23:00 +15°C° 0 mm 1 mps 709 mmHg 96%

Mañana, 26 Junio, Sábado

Tiempo Temperatura Precipitaciones Viento Presión Humedad
00:00 +15°C° 0 mm 1 mps 709 mmHg 96%
01:00 +14°C° 0 mm 1 mps 708 mmHg 96%
02:00 +14°C° 0 mm 1 mps 709 mmHg 97%
03:00 +14°C° 0 mm 1 mps 709 mmHg 97%
04:00 +13°C° 0 mm 1 mps 709 mmHg 97%
05:00 +14°C° 0 mm 1 mps 710 mmHg 96%
06:00 +15°C° 0 mm 1 mps 710 mmHg 94%
07:00 +16°C° 0 mm 1 mps 710 mmHg 92%
08:00 +18°C° 0 mm 1 mps 710 mmHg 84%
09:00 +20°C° 0 mm 1 mps 710 mmHg 77%
10:00 +21°C° 0 mm 1 mps 710 mmHg 69%
11:00 +21°C° 0.1 mm 2 mps 710 mmHg 66%
12:00 +23°C° 0.1 mm 2 mps 710 mmHg 62%
13:00 +23°C° 0.1 mm 2 mps 710 mmHg 59%
14:00 +23°C° 0.5 mm 2 mps 710 mmHg 63%
15:00 +21°C° 0.5 mm 2 mps 710 mmHg 68%
16:00 +21°C° 0.5 mm 2 mps 710 mmHg 72%
17:00 +20°C° 0.6 mm 2 mps 710 mmHg 78%
18:00 +18°C° 0.6 mm 2 mps 710 mmHg 85%
19:00 +18°C° 0.6 mm 1 mps 710 mmHg 91%
20:00 +16°C° 0 mm 1 mps 710 mmHg 92%
21:00 +15°C° 0 mm 1 mps 710 mmHg 94%
22:00 +15°C° 0 mm 1 mps 710 mmHg 95%
23:00 +14°C° 0 mm 1 mps 710 mmHg 95%

Pasado mañana, 27 Junio, Domingo

Tiempo Temperatura Precipitaciones Viento Presión Humedad
00:00 +14°C° 0 mm 1 mps 710 mmHg 96%
01:00 +14°C° 0 mm 1 mps 710 mmHg 96%
02:00 +13°C° 0 mm 1 mps 710 mmHg 96%
03:00 +13°C° 0 mm 1 mps 710 mmHg 96%
04:00 +13°C° 0 mm 1 mps 710 mmHg 96%
05:00 +15°C° 0 mm 1 mps 710 mmHg 92%
06:00 +16°C° 0 mm 1 mps 711 mmHg 88%
07:00 +19°C° 0 mm 1 mps 711 mmHg 84%
08:00 +20°C° 0 mm 1 mps 711 mmHg 75%
09:00 +22°C° 0 mm 1 mps 711 mmHg 67%
10:00 +23°C° 0 mm 2 mps 711 mmHg 59%
11:00 +23°C° 0.1 mm 2 mps 711 mmHg 58%
12:00 +24°C° 0.1 mm 2 mps 711 mmHg 58%
13:00 +24°C° 0.1 mm 2 mps 711 mmHg 57%
14:00 +24°C° 0.2 mm 2 mps 711 mmHg 58%
15:00 +24°C° 0.2 mm 2 mps 711 mmHg 59%
16:00 +24°C° 0.2 mm 2 mps 711 mmHg 59%
17:00 +22°C° 0.1 mm 1 mps 711 mmHg 67%
18:00 +21°C° 0.1 mm 1 mps 710 mmHg 75%
19:00 +19°C° 0.1 mm 1 mps 710 mmHg 82%
20:00 +16°C° 0 mm 0 mps 710 mmHg 85%
21:00 +15°C° 0 mm 0 mps 710 mmHg 87%
22:00 +14°C° 0 mm 0 mps 710 mmHg 89%
23:00 +14°C° 0 mm 0 mps 710 mmHg 90%

28 Junio, Lunes

Tiempo Temperatura Precipitaciones Viento Presión Humedad
00:00 +14°C° 0 mm 0 mps 710 mmHg 91%
01:00 +13°C° 0 mm 0 mps 710 mmHg 91%
02:00 +13°C° 0 mm 0 mps 710 mmHg 91%
03:00 +13°C° 0 mm 0 mps 710 mmHg 91%
04:00 +13°C° 0 mm 0 mps 710 mmHg 91%
05:00 +15°C° 0 mm 0 mps 710 mmHg 85%
06:00 +16°C° 0 mm 0 mps 711 mmHg 79%
07:00 +18°C° 0 mm 0 mps 711 mmHg 73%
08:00 +20°C° 0 mm 0 mps 711 mmHg 67%
09:00 +21°C° 0 mm 0 mps 711 mmHg 61%
10:00 +23°C° 0 mm 0 mps 711 mmHg 55%
11:00 +26°C° 0 mm 1 mps 711 mmHg 52%
12:00 +26°C° 0 mm 1 mps 711 mmHg 49%
13:00 +27°C° 0 mm 2 mps 711 mmHg 47%
14:00 +26°C° 0 mm 2 mps 711 mmHg 51%
15:00 +26°C° 0 mm 2 mps 711 mmHg 55%
16:00 +25°C° 0 mm 2 mps 710 mmHg 58%
17:00 +23°C° 0.1 mm 2 mps 710 mmHg 66%
18:00 +22°C° 0.1 mm 1 mps 710 mmHg 74%
19:00 +21°C° 0.1 mm 1 mps 710 mmHg 81%
20:00 +19°C° 0.1 mm 1 mps 710 mmHg 84%
21:00 +18°C° 0.1 mm 1 mps 710 mmHg 87%
22:00 +16°C° 0.1 mm 1 mps 709 mmHg 89%
23:00 +16°C° 0 mm 1 mps 709 mmHg 90%

29 Junio, Martes

Tiempo Temperatura Precipitaciones Viento Presión Humedad
00:00 +16°C° 0 mm 1 mps 709 mmHg 90%
01:00 +15°C° 0 mm 1 mps 709 mmHg 91%
02:00 +15°C° 0.1 mm 1 mps 709 mmHg 91%
03:00 +15°C° 0.1 mm 1 mps 709 mmHg 91%
04:00 +15°C° 0.1 mm 1 mps 708 mmHg 92%
05:00 +18°C° 0 mm 1 mps 709 mmHg 87%
06:00 +20°C° 0 mm 1 mps 709 mmHg 83%
07:00 +21°C° 0 mm 1 mps 709 mmHg 79%
08:00 +23°C° 0 mm 1 mps 709 mmHg 71%
09:00 +25°C° 0 mm 1 mps 709 mmHg 63%
10:00 +27°C° 0 mm 1 mps 709 mmHg 55%
11:00 +28°C° 0.1 mm 1 mps 709 mmHg 52%
12:00 +29°C° 0.1 mm 1 mps 708 mmHg 49%
13:00 +30°C° 0.1 mm 1 mps 708 mmHg 46%
14:00 +28°C° 0.1 mm 1 mps 708 mmHg 53%
15:00 +27°C° 0.1 mm 1 mps 708 mmHg 61%
16:00 +26°C° 0.1 mm 1 mps 707 mmHg 68%
17:00 +25°C° 0.2 mm 1 mps 707 mmHg 73%
18:00 +24°C° 0.2 mm 1 mps 707 mmHg 78%
19:00 +23°C° 0.2 mm 1 mps 707 mmHg 84%
20:00 +22°C° 0 mm 1 mps 707 mmHg 86%
21:00 +21°C° 0 mm 1 mps 707 mmHg 88%
22:00 +20°C° 0 mm 1 mps 707 mmHg 90%
23:00 +20°C° 0 mm 1 mps 706 mmHg 90%

30 Junio, Miércoles

Tiempo Temperatura Precipitaciones Viento Presión Humedad
00:00 +19°C° 0 mm 1 mps 706 mmHg 91%
01:00 +19°C° 0 mm 1 mps 706 mmHg 92%
02:00 +18°C° 0 mm 2 mps 706 mmHg 92%
03:00 +18°C° 0 mm 2 mps 706 mmHg 91%
04:00 +18°C° 0 mm 2 mps 705 mmHg 91%
05:00 +19°C° 0 mm 2 mps 705 mmHg 84%
06:00 +21°C° 0 mm 2 mps 706 mmHg 77%
07:00 +24°C° 0 mm 2 mps 706 mmHg 70%
08:00 +26°C° 0 mm 2 mps 706 mmHg 62%
09:00 +28°C° 0 mm 1 mps 706 mmHg 54%
10:00 +30°C° 0 mm 1 mps 706 mmHg 46%
11:00 +30°C° 0.4 mm 2 mps 705 mmHg 48%
12:00 +30°C° 0.4 mm 3 mps 705 mmHg 51%
13:00 +29°C° 0.4 mm 3 mps 704 mmHg 54%
14:00 +26°C° 4.6 mm 3 mps 704 mmHg 66%
15:00 +21°C° 4.6 mm 2 mps 705 mmHg 79%
16:00 +19°C° 4.6 mm 1 mps 705 mmHg 91%
17:00 +19°C° 1.4 mm 1 mps 705 mmHg 93%
18:00 +19°C° 1.4 mm 1 mps 705 mmHg 95%
19:00 +19°C° 1.4 mm 1 mps 706 mmHg 96%
20:00 +19°C° 1 mm 1 mps 706 mmHg 96%
21:00 +18°C° 1 mm 1 mps 706 mmHg 96%
22:00 +18°C° 1 mm 1 mps 706 mmHg 96%
23:00 +18°C° 0 mm 1 mps 706 mmHg 96%
Mostrar más

Necesitamos Su Consentimiento

Meteoprog y nuestros Proveedores de Servicios pueden almacenar y acceder a sus datos personales como cookies, identificadores de dispositivo u otras tecnologías similares de su dispositivo y procesar dichos datos para personalizar contenido y anuncios, además de ofrecer funciones de redes sociales y analizar el tráfico.

  • Almacenar y/o acceder a información en su dispositivo

    Se puede almacenar o acceder a cookies, identificadores de dispositivo u otra información de su dispositivo para los fines anteriormente indicados.

  • Anuncios y contenido personalizados, medición de anuncios y contenido, percepciones del público, y desarrollo de productos

    Los anuncios y el contenido pueden personalizarse en base a su perfil. Se pueden añadir más datos para personalizar mejor los anuncios y contenidos. Se puede medir el rendimiento de los anuncios y contenidos. Se puede obtener la percepción sobre el público que ha visto los anuncios y contenidos. Dichos datos pueden usarse para desarrollar o mejorar la experiencia del usuario, sistemas y software.

Al hacer clic en ‘Estoy De Acuerdo’ usted permitirá el uso de las cookies, identificadores de dispositivo, balizas web u otras tecnologías similares indicadas. Su configuración puede cambiarse desde el navegador de su dispositivo.

Para ciertos fines, los intereses legítimos pueden ser considerados por encima del consentimiento. Puede leer más sobre ello en nuestra Política de Privacidad y Cookies.